COSMOS 2173

Satellite information

Favourite Embed

Satellite Type and Status

PAYLOADIN ORBIT

Key statistics

Satellite COSMOS 2173 at a glance.

Uptime

12436

Days in orbit

Revolutions

≈ 13.8

Per day

Orbit

LEO

Low Earth Orbit

Inclination

83.0

Latest

Satellite identification and parameters

Extended collection of information and parameters for COSMOS 2173.

Object identification

Identified? True

Debris? False

Object name: COSMOS 2173

International designator: 1991-081A

Object number (NORAD): 21796

Object ID (CCSDS): 21796

Country: COMMONWEALTH OF INDEPENDENT STATES (CIS)

Current information (Y/N): Y

RCS size: LARGE

Orbital parameters

Period: 104.671 minutes

Inclination: 82.9553 deg

SMA: 7357.16 km

Apoapsis: 1015.859 km

Periapsis: 942.192 km

RAAN: 308.1156 deg

Eccentricy: 0.0050065

Argument of periapsis: 138.8122 deg

Mean anomaly: 34.529 deg

Mean motion: 13.75743406 rev/day

Mean motion (dot): 0.00000095 rev/day2

B* drag term: 0.00008156535 1/REarth

Two-line elements (TLE)

Creation date: Dec. 14, 2025, 3:07 a.m.

Reference frame: TEME

Reference center: EARTH

Epoch: Dec. 13, 2025, 4:36 p.m. UTC

TLE line 0: 0 COSMOS 2173

TLE line 1: 1 21796U 91081A 25347.69186421 .00000095 00000-0 81565-4 0 9995

TLE line 2: 2 21796 82.9553 308.1156 0050065 138.8122 34.5290 13.75743406708899

Live tracking on map

Real-time ground track for satellite COSMOS 2173.

In-orbit conjunctions

A list of the most updated potential collisions computed for object COSMOS 2173.

Target Orbit TCA Probability of collision Miss distance Type
FENGYUN 1C DEB SSO 2025-06-15 14:43:31 0.0001288578 506.0 (m) DEBRIS
FENGYUN 1C DEB SSO 2025-05-15 03:52:19 0.0002987725 933.0 (m) DEBRIS
DMSP 5D-2 F11 DEB SSO 2025-03-10 05:32:45 0.0001578584 993.0 (m) DEBRIS
THORAD AGENA D DEB SSO 2024-12-02 00:48:18 0.0001004653 351.0 (m) DEBRIS

Associated space launch

Navigation satellite providing location information for the Tsiklon-B navigation system

COSMOS 2173 was lifted into orbit during the mission ‘Kosmos-3M | Parus 74’, on board a Kosmos-3M space rocket.

The launch took place on Nov. 27, 1991, 3:30 a.m. from 133/3 (133L).

For more information about the launch, click the button.

Launch to space Kosmos-3M | Parus 74
Kosmos-3M | Parus 74

Agency: N/A

Status: Launch Successful

Launch date: Nov. 27, 1991, 3:30 a.m. UTC

Rocket: Kosmos-3M

Launch pad: 133/3 (133L)

Location: Plesetsk Cosmodrome, Russian Federation

...

Latest news about this satellite

There are no fresh news available about this satellite. Check back as we update our databases every day.


Newsletter sign-up

Weekly statistics, charts and insights to help you stay on top of the space industry.